ボク彗星

C/2022 U3 ( Bok )

English version
Home page
Updated on December 1, 2023

---------------------------------------------------------------------

・ プロフィール

発見日 2022年10月31日
発見光度 19.6等
発見者 Hannes Groeller and Cassandra Lejoly (Bok NEO Survey)

・ 写真集

・ 軌道要素

Epoch 2023 Sept. 13.0 TT = JDT 2460200.5
T 2024 July 27.85057 TT                                 Rudenko
q   4.8275751            (2000.0)            P               Q
z  -0.0006987      Peri.  189.01368     -0.17845140     -0.81372738
 +/-0.0000059      Node   272.79490     +0.93375315     +0.03722143
e   1.0033732      Incl.   33.63044     +0.31025820     -0.58005371
>From 183 observations 2021 June 30-2023 Sept. 27, mean residual 0".5.

・ 光度変化

        m1 = 3.0 + 5 logΔ + 15.0 log r

---------------------------------------------------------------------

軌道要素はM.P.E.C. 2023-S260に掲載されたものです。
光度グラフはComet for Windowsで作成したものです。

---------------------------------------------------------------------

Copyright(C) Seiichi Yoshida (comet@aerith.net). All rights reserved.